Monument Pass, CO

6:02 PM MST on November 21, 2019 (GMT -0700)
Monument Pass

Weather History for KMNH - October, 2019

Change the Weather History Date:

Sunday, October 20, 2019

  Actual Average Record
Temperature  
Mean Temperature 34 °F -  
Max Temperature 46 °F - 73 °F (2012)
Min Temperature 23 °F - 23 °F (2016)
Degree Days  
Heating Degree Days 30    
Month to date heating degree days 388  
Cooling Degree Days 0    
Month to date cooling degree days 0  
Moisture  
Dew Point 9 °F    
Average Humidity 35    
Maximum Humidity 80    
Minimum Humidity 18    
Precipitation  
Precipitation 0.00 in - 0.07 in (2006)
Snow  
Snow 0.00 in - - ()
Snow Depth 0.00 in    
Sea Level Pressure  
Sea Level Pressure 29.78 in    
Wind  
Wind Speed 14 mph ()    
Max Wind Speed 32 mph    
Max Gust Speed 45 mph    
Visibility 10.0 miles    
Events      
T = Trace of Precipitation, MM = Missing Value Source: Averaged Metar Reports

Daily Weather History Graph

Daily Weather History Graph

Search for Another Location

Airport or City:

Astronomy

Oct. 20, 2019 Rise Set
Actual Time 7:13 AM MDT 6:12 PM MDT
Civil Twilight 6:46 AM MDT 6:39 PM MDT
Nautical Twilight 6:14 AM MDT 7:11 PM MDT
Astronomical Twilight 5:43 AM MDT 7:42 PM MDT
Moon 11:25 PM MDT (10/20) 1:41 PM MDT (10/20)
Length of Visible Light 11h 53m
Length of Day
10h 59m
Waning Gibbous, 58% of the Moon is Illuminated
Oct 20
Waning Gibbous
Oct 21
Last Quarter
Oct 27
New
Nov 4
First Quarter
Nov 12
Full

Hourly Weather History & Observations

Time (MDT) Temp. Windchill Dew Point Humidity Pressure Visibility Wind Dir Wind Speed Gust Speed Precip Events Conditions
12:12 AM 37.4 °F 32.1 °F 12.2 °F 36% 29.67 in 10.0 mi SE 6.9 mph - N/A   Clear
12:53 AM 42.8 °F 35.4 °F 10.4 °F 27% 29.65 in 10.0 mi SW 15.0 mph - N/A   Clear
1:12 AM 44.6 °F 37.4 °F 10.4 °F 25% 29.64 in 10.0 mi SW 16.1 mph 24.2 mph N/A   Clear
1:48 AM 44.6 °F 38.8 °F 12.2 °F 27% 29.62 in 10.0 mi SW 11.5 mph 17.3 mph N/A   Clear
2:13 AM 42.8 °F 38.6 °F 12.2 °F 29% 29.61 in 10.0 mi SSW 6.9 mph - N/A   Clear
2:31 AM 44.6 °F 38.8 °F 12.2 °F 27% 29.61 in 10.0 mi SW 11.5 mph 24.2 mph N/A   Clear
3:12 AM 44.6 °F 38.1 °F 14.0 °F 29% 29.61 in 10.0 mi West 13.8 mph - N/A   Clear
3:30 AM 44.6 °F 35.1 °F 14.0 °F 29% 29.61 in 10.0 mi WSW 27.6 mph 33.4 mph N/A   Clear
3:48 AM 44.6 °F 37.2 °F 14.0 °F 29% 29.63 in 10.0 mi West 17.3 mph 27.6 mph N/A   Clear
4:12 AM 33.8 °F 24.3 °F 24.8 °F 70% 29.65 in 10.0 mi North 13.8 mph 26.5 mph N/A   Clear
4:30 AM 32.0 °F 24.2 °F 26.6 °F 80% 29.66 in 10.0 mi NNW 9.2 mph - N/A   Clear
4:48 AM 32.0 °F 23.0 °F 26.6 °F 80% 29.66 in 10.0 mi NNW 11.5 mph - N/A   Clear
5:12 AM 33.8 °F 25.8 °F 26.6 °F 75% 29.68 in 10.0 mi NNW 10.4 mph - N/A   Clear
5:30 AM 32.0 °F 23.6 °F 23.0 °F 69% 29.69 in 10.0 mi NNW 10.4 mph - N/A   Scattered Clouds
5:48 AM 33.8 °F 24.8 °F 19.4 °F 56% 29.69 in 10.0 mi NNW 12.7 mph - N/A   Mostly Cloudy
6:12 AM 33.8 °F 23.5 °F 15.8 °F 48% 29.73 in 10.0 mi WNW 16.1 mph 21.9 mph N/A   Mostly Cloudy
6:30 AM 33.8 °F 23.9 °F 14.0 °F 44% 29.74 in 10.0 mi NW 15.0 mph 23.0 mph N/A   Mostly Cloudy
6:48 AM 32.0 °F 22.1 °F 14.0 °F 48% 29.74 in 10.0 mi WNW 13.8 mph 19.6 mph N/A   Overcast
7:12 AM 32.0 °F 22.5 °F 14.0 °F 48% 29.73 in 10.0 mi West 12.7 mph - N/A   Scattered Clouds
7:30 AM 32.0 °F 22.5 °F 14.0 °F 48% 29.73 in 10.0 mi WNW 12.7 mph - N/A   Scattered Clouds
7:48 AM 33.8 °F 24.8 °F 15.8 °F 48% 29.74 in 10.0 mi WSW 12.7 mph - N/A   Scattered Clouds
8:12 AM 33.8 °F 25.8 °F 14.0 °F 44% 29.74 in 10.0 mi West 10.4 mph - N/A   Scattered Clouds
8:30 AM 35.6 °F 24.8 °F 8.6 °F 33% 29.74 in 10.0 mi WNW 19.6 mph 24.2 mph N/A   Scattered Clouds
8:48 AM 37.4 °F 26.6 °F 5.0 °F 26% 29.74 in 10.0 mi WNW 21.9 mph 32.2 mph N/A   Clear
9:12 AM 35.6 °F 23.0 °F 10.4 °F 35% 29.74 in 10.0 mi West 27.6 mph 35.7 mph N/A   Clear
9:30 AM 37.4 °F 25.2 °F 5.0 °F 26% 29.74 in 10.0 mi West 28.8 mph 35.7 mph N/A   Clear
9:48 AM 37.4 °F 26.1 °F 3.2 °F 24% 29.74 in 10.0 mi West 24.2 mph 36.8 mph N/A   Clear
10:12 AM 39.2 °F 27.4 °F 3.2 °F 22% 29.74 in 10.0 mi West 29.9 mph 41.4 mph N/A   Clear
10:30 AM 39.2 °F 27.2 °F 3.2 °F 22% 29.72 in 10.0 mi West 31.1 mph 40.3 mph N/A   Clear
10:48 AM 39.2 °F 27.6 °F 3.2 °F 22% 29.72 in 10.0 mi West 28.8 mph 44.9 mph N/A   Clear
11:12 AM 41.0 °F 29.8 °F 1.4 °F 19% 29.73 in 10.0 mi West 29.9 mph 44.9 mph N/A   Clear
11:30 AM 41.0 °F 29.5 °F 1.4 °F 19% 29.74 in 10.0 mi West 32.2 mph 44.9 mph N/A   Scattered Clouds
11:48 AM 41.0 °F 30.2 °F 3.2 °F 21% 29.74 in 10.0 mi West 27.6 mph 44.9 mph N/A   Clear
12:30 PM 42.8 °F 32.7 °F 3.2 °F 19% 29.74 in 10.0 mi West 27.6 mph 36.8 mph N/A   Clear
12:48 PM 42.8 °F 32.1 °F 3.2 °F 19% 29.74 in 10.0 mi West 31.1 mph 36.8 mph N/A   Clear
1:12 PM 44.6 °F 35.3 °F 3.2 °F 18% 29.74 in 10.0 mi WNW 26.5 mph 34.5 mph N/A   Clear
1:30 PM 42.8 °F 33.3 °F 1.4 °F 18% 29.74 in 10.0 mi WNW 24.2 mph 36.8 mph N/A   Clear
1:48 PM 42.8 °F 33.1 °F 3.2 °F 19% 29.75 in 10.0 mi WNW 25.3 mph 32.2 mph N/A   Clear
2:12 PM 42.8 °F 33.3 °F 3.2 °F 19% 29.75 in 10.0 mi WNW 24.2 mph 29.9 mph N/A   Clear
2:30 PM 42.8 °F 33.8 °F 5.0 °F 21% 29.76 in 10.0 mi WNW 21.9 mph 34.5 mph N/A   Clear
2:48 PM 41.0 °F 31.4 °F 5.0 °F 23% 29.77 in 10.0 mi WNW 21.9 mph 34.5 mph N/A   Clear
3:12 PM 39.2 °F 29.8 °F 5.0 °F 24% 29.78 in 10.0 mi NW 18.4 mph 24.2 mph N/A   Clear
3:30 PM 37.4 °F 28.5 °F 5.0 °F 26% 29.79 in 10.0 mi NW 15.0 mph 25.3 mph N/A   Scattered Clouds
3:53 PM 37.4 °F 28.9 °F 6.8 °F 28% 29.81 in 10.0 mi NW 13.8 mph 20.7 mph N/A   Overcast
4:12 PM 37.4 °F 28.5 °F 6.8 °F 28% 29.82 in 10.0 mi NW 15.0 mph 21.9 mph N/A   Overcast
4:30 PM 37.4 °F 29.3 °F 5.0 °F 26% 29.83 in 10.0 mi WNW 12.7 mph 20.7 mph N/A   Overcast
4:48 PM 37.4 °F 29.3 °F 5.0 °F 26% 29.84 in 10.0 mi NW 12.7 mph - N/A   Overcast
5:12 PM 35.6 °F 29.2 °F 5.0 °F 28% 29.85 in 10.0 mi NW 8.1 mph - N/A   Overcast
5:30 PM 35.6 °F 28.0 °F 5.0 °F 28% 29.85 in 10.0 mi NW 10.4 mph - N/A   Mostly Cloudy
5:48 PM 35.6 °F 27.1 °F 5.0 °F 28% 29.86 in 10.0 mi NW 12.7 mph - N/A   Mostly Cloudy
6:12 PM 35.6 °F 29.2 °F 6.8 °F 30% 29.87 in 10.0 mi NW 8.1 mph 16.1 mph N/A   Overcast
6:30 PM 35.6 °F 29.9 °F 6.8 °F 30% 29.88 in 10.0 mi NW 6.9 mph - N/A   Overcast
6:48 PM 33.8 °F 27.7 °F 6.8 °F 32% 29.88 in 10.0 mi NW 6.9 mph - N/A   Scattered Clouds
7:12 PM 32.0 °F 25.6 °F 6.8 °F 35% 29.89 in 10.0 mi WNW 6.9 mph - N/A   Clear
7:30 PM 32.0 °F 25.6 °F 6.8 °F 35% 29.90 in 10.0 mi West 6.9 mph - N/A   Clear
7:48 PM 30.2 °F 23.4 °F 6.8 °F 37% 29.91 in 10.0 mi WNW 6.9 mph - N/A   Clear
8:12 PM 30.2 °F 24.3 °F 6.8 °F 37% 29.91 in 10.0 mi WNW 5.8 mph - N/A   Clear
8:30 PM 28.4 °F 22.2 °F 5.0 °F 37% 29.91 in 10.0 mi WSW 5.8 mph - N/A   Clear
8:48 PM 28.4 °F 24.6 °F 6.8 °F 40% 29.92 in 10.0 mi West 3.5 mph - N/A   Clear
9:12 PM 30.2 °F 25.4 °F 5.0 °F 34% 29.92 in 10.0 mi West 4.6 mph - N/A   Clear
9:30 PM 28.4 °F 22.2 °F 5.0 °F 37% 29.93 in 10.0 mi West 5.8 mph - N/A   Clear
9:48 PM 28.4 °F 21.2 °F 5.0 °F 37% 29.93 in 10.0 mi West 6.9 mph - N/A   Clear
10:12 PM 23.0 °F 15.8 °F 5.0 °F 46% 29.93 in 10.0 mi West 5.8 mph - N/A   Clear
10:30 PM 24.8 °F 17.9 °F 5.0 °F 43% 29.93 in 10.0 mi WSW 5.8 mph - N/A   Clear
10:48 PM 26.6 °F 19.1 °F 5.0 °F 40% 29.93 in 10.0 mi WSW 6.9 mph - N/A   Clear
11:12 PM 23.0 °F 14.7 °F 5.0 °F 46% 29.93 in 10.0 mi West 6.9 mph - N/A   Clear
11:30 PM 23.0 °F - 5.0 °F 46% 29.93 in 10.0 mi North - - N/A   Clear
11:48 PM 23.0 °F - 5.0 °F 46% 29.94 in 10.0 mi North - - N/A   Clear